Reflectivity
-4 17 1 5 5 -10 12 16 14 8 22 22 27 8 14 16 27 31 14 -11 -14 -20 4 -17 -17 -19 -19 -20 -20 -20 -20 -20 -20 -20 -20 -20 -20 -20 -20 -15 -20 -20 -20 -20
6 -6 -0 -2 4 -20 15 6 15 -12 23 0 -18 18 1 5 37 15 9 -18 -17 -20 -3 -12 -2 -16 -20 -20 -20 -20 -20 -20 -20 -19 -19 -13 -20 -20 -10 -20 -3 -20 -9 -20
-2 -1 -6 -2 -7 -19 4 -10 26 17 16 -9 -4 -1 -0 32 31 -16 3 -13 -20 3 13 -20 11 -20 -20 -20 -20 3 -20 -20 -20 -18 -19 -20 -20 -20 -20 -16 -18 -20 -20 -20
14 -5 0 1 -20 -20 7 -6 13 16 -3 5 21 24 28 19 32 16 -20 -18 -20 -20 -19 -20 -18 -13 -20 -20 -1 -11 -20 -18 -20 -20 -20 -20 -19 -20 -20 -20 -20 -2 -20 -20
11 -20 -0 9 -20 -20 -16 1 2 11 -4 -20 -2 -8 22 28 8 19 5 -11 11 -20 5 2 -20 -20 -20 -20 -20 -20 -16 -20 -18 -20 -20 -20 -20 -20 -20 -20 -20 -20 -20 -20
5 -19 -20 12 -20 -20 11 11 2 9 -20 -20 -4 10 6 27 30 6 15 -9 -10 -20 -20 -20 -20 -20 -20 -20 -20 -0 -14 -10 -13 -20 -20 -20 -20 -20 -20 -20 -20 -20 -20 -20
9 -15 18 -5 -20 -0 17 10 4 1 -13 0 -10 -17 -1 -1 20 -10 -20 -20 11 -20 -20 -20 -20 -20 -20 -20 -14 -8 -19 -10 4 -20 -20 -20 -5 -20 -20 1 -6 -2 -2 14
-20 -20 -17 -20 -20 -5 -20 11 7 4 -4 -16 -12 -20 1 9 1 15 -8 -6 -20 -20 -20 -14 -19 -20 -20 -19 -16 -20 -10 1 14 -20 -15 -20 -20 -13 -18 -20 -18 8 23 9
-2 -20 -20 -20 -20 -20 -20 -9 5 4 3 -2 -9 -2 -17 4 -18 5 21 15 -19 -20 -17 1 -18 -20 -20 -20 -7 10 5 -5 26 -20 -4 -20 -20 -20 -20 -20 4 13 15 -4
2 -20 5 -11 -20 -18 0 10 -4 6 1 -12 8 10 12 -8 -2 -3 11 -10 4 -6 -20 -12 -20 -20 -20 -20 -20 -8 12 23 -16 -19 -3 -20 -20 -14 -20 -20 -20 -18 -7 17
-20 -14 -20 -10 -9 -20 -20 -3 8 12 11 -14 -16 -0 14 7 -20 14 -20 -15 -14 -3 -15 -4 -12 -9 -13 -20 -20 -20 -20 -7 -12 -7 4 -20 -20 -20 -20 -20 -20 -20 5 -1
-20 -20 1 -20 1 -20 -20 14 6 16 13 -2 -20 -20 -14 -9 16 -13 7 -17 -20 6 -10 4 -20 13 -20 -11 6 -20 -20 -20 -20 -20 -20 -20 -20 -20 -20 -20 -20 -20 -20 -20
11 4 7 2 8 1 -20 -1 4 12 21 11 -20 -4 -20 -20 -20 -20 -16 -20 -20 -20 -0 16 -10 -18 -16 0 -20 -17 -20 -20 -20 -20 -20 -20 -20 -20 -20 -20 -20 -20 -20 -20
-20 8 13 10 11 8 -20 -8 -4 8 -4 -10 15 -20 -20 -20 -20 -20 -20 -20 -20 -16 -4 24 5 11 -20 -13 -7 -10 -17 -20 -20 -20 -20 -20 -20 -20 -20 -20 -20 -20 -20 -20
8 -14 12 13 9 -17 -20 -20 -20 -15 -7 12 -15 -20 -20 -20 -20 -20 -18 -4 -6 14 24 15 5 5 4 -20 -20 -20 -20 -20 -20 -20 -20 -20 -20 -20 -20 -20 -20 -20 -20 -20
5 6 17 14 6 1 -1 -5 -20 7 -20 0 -11 -20 -20 -20 -20 -11 -20 -20 18 13 20 -6 12 -18 13 3 -20 -20 -20 -20 -20 -11 -2 -20 -20 -20 -20 -20 -20 -20 -20 -20
23 12 -3 -11 -19 7 2 3 15 4 19 0 12 -10 -20 -12 22 20 20 21 25 25 23 11 22 12 -1 6 -20 -20 -20 -20 -18 -19 -20 -20 -20 -20 -20 -20 -20 -20 -20 -20
-1 10 -20 15 -1 -20 -20 -8 1 9 -0 -5 2 -1 -10 3 24 26 25 24 17 22 22 7 -13 -17 1 -20 -20 -20 -20 -20 -20 -20 -20 -20 -20 -20 -20 -20 -20 -20 -20 -20
18 15 -18 -13 -16 -14 -20 9 9 -15 -1 21 9 -19 -20 3 19 22 27 27 23 26 16 23 22 17 -9 -20 -20 -20 -20 -20 -20 -20 -20 -20 -20 -20 -20 -20 -20 -20 -20 -18
10 11 0 -20 -20 11 11 16 7 1 3 -7 1 -20 -19 -12 8 21 18 30 33 28 26 26 30 -2 -1 -20 -20 -20 -20 -20 -20 -20 -20 -20 -20 -20 -20 -20 -20 -20 -12 -20
18 6 1 -13 9 10 24 26 17 13 4 -4 -14 -17 -11 -16 -3 13 14 31 32 20 29 35 19 -11 -20 -20 -20 -20 -20 -20 -20 -20 -20 -20 -20 -20 -20 -20 -7 10 -8 -18
8 25 16 24 28 28 -9 18 -12 4 10 -11 -16 -5 -20 -20 -20 -16 24 26 25 14 12 18 4 -18 -20 -20 -20 -20 -20 -20 -20 -20 -20 -20 -18 1 -13 6 15 -20 -20 -20
6 29 27 25 16 -12 -8 -20 -9 -3 -20 -20 -14 -20 -20 -20 -19 -20 24 21 21 -14 -18 -19 -20 -20 -20 -20 -20 -20 -20 -20 -20 -20 -20 -17 -6 -19 9 9 18 10 -13 -17
3 29 19 -14 -16 -20 -20 -20 -19 -20 -20 4 -16 -13 -20 6 10 -9 11 -8 -5 -20 -20 -20 -20 -20 -20 -20 -20 -20 -20 -20 -20 -20 -18 -1 -1 -20 -6 -7 -13 -20 -20 -20
8 -16 -13 2 -20 -20 -20 -4 -16 -20 -20 -20 -20 -20 -20 -5 -0 -5 6 -13 -20 -20 -20 -20 -20 -20 -20 -20 -20 -20 -20 -20 -18 -20 -20 -20 -20 -20 -20 -20 -20 -20 -20 -20
-17 -19 -13 -15 -0 5 -20 -20 -20 -20 -20 -20 -20 -20 -20 -20 -20 -20 -20 -3 -20 -20 -20 -20 -20 -20 -20 -20 -20 -20 -20 -20 -20 -20 -20 -20 -20 -20 -20 -20 -20 -20 -20 -20
-20 -20 -20 -20 2 -17 -16 -20 -20 -20 -20 -15 -12 -20 -20 -20 -20 -20 -20 -20 -20 -20 -20 -20 -20 -20 -20 -20 -20 -20 -20 -20 -20 -20 -20 -20 -20 -20 -20 -20 -20 -20 -20 -20
Wind_Speed
21 22 21 23 24 25 9 2 3 4 3 2 2 2 3 2 3 4 5 2 6 12 14 9 8 11 3 17 11 12 3 3 4 9 9 15 12 6 7 3 5 4 1 9
21 20 21 23 24 25 5 2 2 4 3 1 2 2 2 4 3 5 3 2 1 14 9 7 5 10 2 13 12 12 8 3 3 2 6 10 9 13 11 8 4 7 2 9
20 19 20 22 23 25 4 1 2 2 2 4 5 3 3 2 5 5 5 3 9 15 8 12 11 9 3 4 5 8 8 3 5 1 3 4 4 9 14 14 5 6 17 23
19 19 19 21 23 24 3 1 2 2 3 5 8 1 5 2 2 1 4 3 8 9 3 12 8 9 9 4 3 3 5 4 6 8 9 9 7 11 11 14 16 14 19 19
18 18 18 20 21 23 1 3 3 3 4 8 8 1 4 2 6 4 1 5 10 5 5 0 12 13 8 6 5 5 2 3 5 6 10 12 12 14 16 17 17 17 20 27
19 18 17 18 19 15 3 1 2 2 7 2 2 2 3 5 4 6 7 8 6 12 9 11 11 3 6 7 8 5 5 2 2 4 8 5 7 13 16 14 14 17 18 21
19 19 19 18 17 15 3 2 2 3 3 1 3 5 2 5 2 4 3 4 5 4 7 7 8 9 7 3 4 8 6 4 2 5 6 4 3 6 3 8 10 12 11 18
18 18 19 18 16 17 5 2 3 2 3 8 3 5 1 3 5 6 7 8 7 7 6 2 3 2 1 3 3 3 2 3 3 2 3 8 3 5 5 4 3 12 15 15
17 16 16 17 15 16 5 1 1 2 3 2 9 4 3 0 3 3 4 4 6 5 3 0 2 3 4 4 3 4 4 5 1 3 3 3 1 5 4 6 3 6 2 5
18 16 16 16 15 14 8 0 2 1 2 6 7 2 2 3 2 2 5 3 1 2 2 1 2 3 2 5 6 6 5 3 6 4 3 8 5 6 7 1 1 3 4 3
16 18 15 15 13 12 7 4 3 1 3 8 6 3 3 1 1 2 2 3 1 2 3 2 3 3 4 3 7 8 8 7 4 5 3 9 3 5 2 2 3 3 3 4
16 17 16 15 13 11 9 2 1 2 3 6 4 7 7 3 2 2 3 1 3 2 2 1 3 3 2 5 2 5 5 7 6 7 7 8 4 2 6 3 2 3 1 3
18 18 16 14 14 9 5 3 3 2 3 5 3 2 4 1 3 3 3 0 3 3 1 2 3 5 3 3 6 6 6 8 3 1 8 13 13 7 4 4 3 4 3 1
18 19 16 14 13 10 6 3 2 2 3 3 0 1 2 3 2 2 2 3 4 3 3 3 3 3 2 3 2 2 3 8 7 5 11 16 2 4 4 5 5 4 3 1
19 18 16 14 12 10 6 5 5 5 2 3 4 5 3 3 2 2 2 3 4 2 3 4 3 4 2 4 3 4 5 6 5 5 0 2 2 3 4 6 5 5 4 5
19 19 19 14 11 7 3 2 1 4 3 3 3 1 2 2 1 3 2 2 2 3 3 3 4 4 1 3 3 4 5 6 5 2 2 4 5 5 4 7 5 6 6 6
21 22 21 15 10 4 4 2 2 5 2 2 3 3 2 2 1 1 0 2 2 2 3 4 2 2 1 3 3 3 1 4 3 4 2 3 5 3 7 8 7 9 8 6
23 22 13 10 10 6 5 4 11 6 3 3 2 3 2 3 1 2 2 2 3 4 3 1 2 2 2 4 5 6 3 5 4 5 0 4 7 7 7 6 7 8 7 8
18 9 13 4 2 3 2 2 5 3 3 3 2 2 2 3 2 1 2 2 2 0 3 2 1 2 4 5 3 6 6 4 4 4 5 4 5 6 6 7 7 8 7 9
10 2 1 2 3 3 6 2 3 3 4 2 2 2 2 1 1 1 1 0 1 1 1 2 2 3 6 5 5 5 5 3 1 1 1 1 3 6 6 6 6 7 8 10
1 1 1 3 4 2 2 1 2 2 2 3 2 2 2 1 1 1 1 1 1 1 1 1 2 3 2 7 7 6 6 5 5 3 1 2 5 8 7 7 8 9 10 11
3 3 3 2 1 0 2 1 1 2 2 2 2 1 2 2 1 1 1 1 1 1 2 1 2 2 6 7 7 8 7 7 4 4 4 2 2 7 7 7 9 9 11 12
3 2 2 2 1 2 3 5 2 1 1 2 3 2 2 1 0 0 1 1 1 1 1 2 1 5 8 7 5 7 7 7 5 3 2 3 6 9 10 10 9 12 12 11
1 0 3 3 3 2 1 1 2 1 1 1 1 2 0 1 1 1 2 1 1 1 1 3 2 8 9 8 8 8 7 6 5 5 5 4 6 7 8 9 10 11 12 10
1 1 3 2 1 3 2 2 1 1 1 1 1 1 1 1 0 0 1 1 2 2 1 1 4 8 9 9 10 9 9 9 6 5 2 4 6 7 8 8 9 10 11 11
1 1 2 2 1 1 1 1 1 1 2 0 1 1 1 2 1 1 3 1 2 1 2 2 4 6 7 8 8 6 6 6 5 5 2 3 5 6 7 9 10 10 11 12
2 2 1 1 1 1 2 1 2 2 1 1 1 2 5 1 1 2 1 1 1 2 3 2 5 6 7 7 7 6 7 6 5 4 4 3 5 7 7 7 5 8 9 9
Wind_Direction
340 340 340 341 342 344 336 9 332 324 191 82 238 242 340 349 317 286 240 118 120 145 167 151 169 173 250 175 193 185 144 206 172 206 226 209 197 208 209 165 239 239 165 266
344 343 344 343 344 347 327 16 314 313 303 48 254 83 355 23 246 325 358 112 154 146 136 139 168 126 95 171 169 162 154 221 183 161 231 188 216 213 223 240 307 229 240 261
342 347 347 343 346 349 1 3 89 19 59 276 317 206 13 287 324 344 341 90 147 129 163 143 143 116 92 120 100 103 165 224 241 137 41 113 186 234 216 209 212 255 237 280
345 351 348 345 349 348 342 29 46 28 206 251 238 151 157 198 91 238 292 134 147 140 113 117 111 121 127 137 128 94 137 256 264 274 280 271 236 213 220 231 241 236 273 276
348 351 350 350 354 341 36 21 346 333 270 249 216 81 103 276 81 22 177 147 146 154 107 56 145 151 165 172 166 159 135 256 315 289 266 259 255 248 248 248 240 252 269 277
348 350 350 356 357 355 327 38 231 268 278 161 93 232 161 181 110 310 8 85 88 68 45 47 52 61 152 135 159 153 150 224 272 268 305 320 275 241 236 241 238 242 255 265
350 355 350 352 354 0 320 31 287 304 323 273 272 3 356 185 261 161 81 19 66 88 74 70 52 52 47 66 147 169 174 192 261 269 288 235 215 154 210 264 273 228 240 255
343 345 337 339 345 349 338 20 329 327 311 330 303 284 282 276 91 43 95 51 99 97 53 70 95 78 99 253 237 196 191 198 265 242 274 281 145 178 192 194 283 218 229 260
341 341 331 331 336 346 330 114 337 319 312 243 330 260 207 155 192 125 99 50 83 57 76 246 215 206 193 164 185 204 197 301 235 337 311 270 151 199 127 91 284 190 226 304
338 333 328 329 328 346 344 220 137 276 267 272 319 215 246 145 154 140 105 146 114 339 112 178 242 275 262 167 184 160 180 181 220 249 279 287 273 118 108 309 292 146 191 314
331 325 322 322 323 339 356 295 142 120 291 283 296 330 317 76 275 170 108 111 130 101 164 207 227 244 222 271 159 165 172 179 173 201 232 258 152 99 224 200 307 241 203 160
322 315 315 310 309 324 341 287 218 176 236 272 321 288 289 5 4 103 186 54 123 94 167 216 322 282 247 240 226 143 184 197 176 189 213 253 239 276 272 292 299 300 107 137
317 313 311 303 297 303 308 291 289 249 261 256 252 228 128 158 48 343 142 311 125 155 209 211 242 265 311 241 229 169 226 192 233 162 252 252 272 279 354 7 62 50 56 267
313 311 312 301 297 295 283 260 269 266 262 285 97 151 107 69 52 48 45 123 77 99 132 209 254 253 319 276 273 257 206 152 204 258 287 277 16 58 47 87 89 73 44 309
311 308 302 291 289 287 290 259 238 221 277 330 298 303 109 115 123 173 155 154 147 160 172 215 214 258 247 255 354 269 174 181 174 227 205 42 94 67 26 80 77 75 105 67
307 295 286 275 279 273 289 268 97 155 177 262 294 45 180 113 96 164 158 160 210 165 172 240 237 249 225 262 233 243 224 210 221 272 74 96 106 95 71 98 98 87 89 92
307 288 279 256 244 227 229 322 53 138 173 248 278 286 130 101 132 255 217 184 215 223 190 215 265 302 224 263 237 244 37 62 25 308 214 249 165 158 108 105 93 96 85 76
318 303 225 200 203 246 267 241 222 173 281 259 257 277 252 165 190 242 193 213 193 170 266 247 216 171 228 261 261 283 331 18 356 327 177 107 112 103 110 119 119 111 112 108
325 76 113 115 204 222 237 40 128 152 301 292 173 243 291 170 220 204 208 264 185 166 218 224 334 189 223 238 307 5 31 17 343 24 33 114 153 144 139 135 125 125 136 124
301 259 257 200 193 68 115 194 147 178 212 230 256 237 267 178 187 159 278 14 251 236 204 329 227 262 259 0 359 324 328 351 218 189 306 239 146 168 168 165 147 142 143 128
237 256 261 324 334 208 219 192 178 171 238 194 222 244 295 29 278 341 175 227 204 255 43 272 265 266 61 3 353 355 331 317 282 242 357 237 201 172 161 152 138 139 136 128
316 300 289 279 249 311 138 190 58 185 240 42 324 338 323 322 338 286 263 226 239 352 253 272 262 24 3 355 345 339 342 333 348 50 346 309 180 136 129 130 136 130 123 129
246 215 250 214 270 159 205 173 202 190 55 8 349 321 330 301 259 168 342 277 237 256 217 250 280 355 352 345 345 333 335 348 7 23 5 80 114 120 137 136 128 127 127 133
232 151 229 202 169 232 157 109 136 158 159 178 238 267 16 320 351 334 294 38 352 305 306 236 19 342 332 339 349 352 353 352 10 26 37 80 101 110 111 123 135 135 137 130
222 185 237 181 71 53 56 41 40 59 328 303 226 265 167 259 259 82 314 248 265 212 279 37 343 331 338 348 351 352 355 354 3 8 53 101 108 113 118 129 128 124 126 124
142 240 224 177 135 123 111 79 102 351 327 78 330 247 354 243 136 205 219 240 232 201 358 324 328 336 333 338 335 330 334 341 352 6 40 96 110 126 124 113 127 132 131 136
209 227 283 40 55 66 103 128 76 346 300 234 221 218 223 35 179 245 204 191 72 313 299 316 323 321 323 327 325 343 343 349 1 8 29 70 94 94 109 115 100 114 116 118